SM4TUV Weather Reports


time (UTC)temp
C
wind
direction
speed
KPH
gust
KPH
rain 1hr
cm
rain 24hr
cm
rain mn
cm
humidity
%
barometer
mb
20260505225930 0 55 3.2 3.2 0.00 0.00 0.00 69 977.8
20260505225030 0 142 1.6 3.2 0.00 0.00 0.00 67 977.7
20260505224130 0 35 1.6 3.2 0.00 0.00 0.00 65 977.7
20260505221430 0 216 3.2 3.2 0.00 0.00 0.00 65 977.5
20260505220530 0 181 3.2 3.2 0.00 0.00 0.00 66 977.7
20260505215631 0 193 3.2 4.8 0.00 0.00 0.00 65 977.7
20260505214730 0 183 3.2 3.2 0.00 0.00 0.00 65 977.6
20260505213830 0 207 1.6 3.2 0.00 0.00 0.00 65 977.6
20260505212930 1 163 3.2 3.2 0.00 0.00 0.00 64 977.6
20260505212030 0 167 3.2 3.2 0.00 0.00 0.00 66 977.6
20260505211130 0 181 3.2 4.8 0.00 0.00 0.00 66 977.4
20260505210230 0 171 3.2 3.2 0.00 0.00 0.00 66 977.2
20260505205330 1 58 3.2 6.4 0.00 0.00 0.00 64 977.2
20260505204430 1 287 6.4 8.0 0.00 0.00 0.00 63 977.1
20260505203530 1 255 4.8 8.0 0.00 0.00 0.00 65 976.9
20260505201730 1 215 4.8 6.4 0.00 0.00 0.00 67 976.9
20260505200830 1 247 6.4 6.4 0.00 0.00 0.00 67 976.9
20260505195030 1 218 6.4 6.4 0.00 0.00 0.00 67 976.4
20260505194130 1 223 4.8 6.4 0.00 0.00 0.00 66 976.4
20260505192330 2 237 4.8 6.4 0.00 0.00 0.00 64 976.4
20260505190530 3 287 4.8 11.3 0.00 0.00 0.00 58 976.1
20260505185631 3 265 4.8 11.3 0.00 0.00 0.00 58 976.2
20260505184730 3 270 4.8 6.4 0.00 0.00 0.00 56 976.4
20260505183830 4 272 8.0 12.9 0.00 0.00 0.00 55 976.1
20260505182930 5 284 8.0 12.9 0.00 0.00 0.00 53 976.0
20260505175330 5 287 3.2 6.4 0.00 0.00 0.00 48 975.5
20260505174430 4 56 4.8 9.7 0.00 0.00 0.00 48 975.4
20260505173530 3 16 9.7 16.1 0.00 0.00 0.00 48 975.4
20260505172630 3 349 19.3 27.4 0.00 0.00 0.00 51 975.7
20260505171730 4 312 17.7 32.2 0.00 0.00 0.00 50 975.7
20260505170830 5 327 27.4 33.8 0.00 0.00 0.00 49 975.7
20260505165930 5 330 24.1 33.8 0.00 0.00 0.00 51 975.6
20260505164130 5 341 22.5 37.0 0.00 0.00 0.00 49 975.5
20260505163230 6 312 17.7 27.4 0.00 0.00 0.00 43 975.4
20260505162330 6 305 19.3 27.4 0.00 0.00 0.00 40 975.3
20260505161430 7 295 12.9 20.9 0.00 0.00 0.00 38 975.2
20260505160530 7 303 11.3 19.3 0.00 0.00 0.00 38 975.1
20260505152030 6 227 6.4 9.7 0.00 0.00 0.00 42 975.1
20260505151130 6 201 6.4 11.3 0.00 0.00 0.00 44 975.0
20260505150230 6 241 4.8 8.0 0.00 0.00 0.00 45 975.1
20260505124731 6 261 12.9 29.0 0.00 0.00 0.00 46 974.6
20260505123830 5 251 17.7 29.0 0.00 0.00 0.00 48 974.8
20260505122930 6 278 14.5 24.1 0.00 0.00 0.00 45 974.7
20260505122030 6 265 12.9 22.5 0.00 0.00 0.00 42 974.5
20260505121131 7 309 11.3 14.5 0.00 0.00 0.00 37 974.3
20260505120230 7 322 17.7 24.1 0.00 0.00 0.00 31 974.2
20260505115330 7 317 19.3 25.7 0.00 0.00 0.00 32 974.1
20260505114430 7 305 20.9 29.0 0.00 0.00 0.00 35 973.8
20260505113530 7 308 16.1 27.4 0.00 0.00 0.00 35 974.0
20260505112631 7 322 22.5 35.4 0.00 0.00 0.00 36 974.0
20260505111730 7 313 17.7 25.7 0.00 0.00 0.00 36 973.9
20260505110830 7 292 24.1 25.7 0.00 0.00 0.00 35 973.9
20260505100530 5 307 17.7 19.3 0.00 0.00 0.00 45 973.9
20260505095630 6 318 14.5 27.4 0.00 0.00 0.00 44 973.9
20260505094730 7 301 16.1 20.9 0.00 0.00 0.00 40 973.7
20260505093830 6 281 11.3 16.1 0.00 0.00 0.00 43 973.9
20260505092030 7 301 9.7 17.7 0.00 0.00 0.00 44 973.9
20260505091131 6 317 12.9 19.3 0.00 0.00 0.00 43 973.7
20260505090230 6 311 14.5 22.5 0.00 0.00 0.00 42 973.5
20260505085330 6 328 19.3 22.5 0.00 0.00 0.00 40 973.6
20260505084430 6 321 17.7 25.7 0.00 0.00 0.00 43 973.6
20260505083530 6 332 17.7 24.1 0.00 0.00 0.00 42 973.4
20260505082631 6 327 14.5 24.1 0.00 0.00 0.00 44 973.4
20260505081730 6 329 16.1 25.7 0.00 0.00 0.00 44 973.3
20260505080830 6 319 16.1 25.7 0.00 0.00 0.00 48 973.1
20260505075930 6 338 14.5 24.1 0.00 0.00 0.00 49 973.2
20260505075030 6 316 12.9 17.7 0.00 0.00 0.00 53 973.2
20260505074130 5 322 12.9 19.3 0.00 0.00 0.00 54 973.1
20260505073230 4 311 11.3 16.1 0.00 0.00 0.00 56 973.1
20260505072330 4 315 16.1 20.9 0.00 0.00 0.00 57 973.0
20260505071430 5 312 14.5 20.9 0.00 0.00 0.00 56 972.9
20260505070530 5 313 11.3 16.1 0.00 0.00 0.00 56 972.7
20260505065631 5 319 11.3 17.7 0.00 0.00 0.00 58 972.7
20260505064730 5 300 8.0 11.3 0.00 0.00 0.00 59 972.8
20260505063830 5 305 6.4 8.0 0.00 0.00 0.00 61 972.8
20260505062930 5 270 6.4 8.0 0.00 0.00 0.00 62 972.9
20260505061130 3 268 6.4 8.0 0.00 0.00 0.00 68 972.6
20260505060230 2 262 4.8 8.0 0.00 0.00 0.00 70 972.4
20260505055330 1 216 6.4 9.7 0.00 0.00 0.00 71 972.4
20260505053531 2 235 6.4 9.7 0.00 0.00 0.00 69 972.5
20260505050830 5 229 4.8 6.4 0.00 0.00 0.00 63 972.1
20260505041430 2 282 6.4 9.7 0.00 0.00 0.00 69 971.8
20260505040531 2 296 4.8 8.0 0.00 0.00 0.00 70 971.8
20260505035632 1 296 8.0 9.7 0.00 0.00 0.00 70 971.8
20260505034730 1 290 6.4 8.0 0.00 0.00 0.00 72 971.5
20260505033831 1 305 4.8 8.0 0.00 0.00 0.00 73 971.5
20260505032930 1 286 4.8 6.4 0.00 0.00 0.00 74 971.5
20260505031131 0 242 8.0 9.7 0.00 0.00 0.00 77 971.4
20260505030230 0 231 6.4 8.0 0.00 0.00 0.00 77 971.5
20260505024431 0 244 4.8 6.4 0.00 0.00 0.00 76 971.4
20260505022631 0 313 4.8 6.4 0.00 0.00 0.00 74 971.3
20260505021731 0 335 4.8 8.0 0.00 0.00 0.00 76 971.2
20260505020830 0 318 6.4 6.4 0.00 0.00 0.00 76 971.0
20260505015930 0 325 6.4 11.3 0.00 0.00 0.00 77 971.1
20260505015030 0 325 9.7 17.7 0.00 0.00 0.00 78 971.0
20260505014130 1 319 6.4 12.9 0.00 0.00 0.00 81 971.0
20260505013230 1 267 3.2 6.4 0.00 0.00 0.00 84 970.9
20260505012331 1 260 3.2 4.8 0.00 0.00 0.00 84 970.8
20260505011430 1 280 4.8 6.4 0.00 0.00 0.00 84 970.7
20260505010530 1 214 6.4 9.7 0.00 0.00 0.00 89 970.7
20260505005632 1 192 6.4 9.7 0.00 0.00 0.00 89 970.7
20260505004731 1 198 8.0 9.7 0.00 0.00 0.00 90 970.7
20260505003831 1 181 6.4 9.7 0.00 0.00 0.00 90 970.7
20260505002931 1 215 6.4 6.4 0.00 0.00 0.00 89 970.6
20260505002030 1 217 6.4 8.0 0.00 0.00 0.00 89 970.4
20260505001130 1 229 4.8 4.8 0.00 0.00 0.00 88 970.4
20260504235331 1 235 3.2 4.8 0.00 0.00 0.00 88 970.3
20260504234430 1 263 6.4 11.3 0.00 0.00 0.00 88 970.3
20260504233530 1 233 6.4 8.0 0.00 0.00 0.00 88 970.2
20260504232632 1 240 3.2 4.8 0.00 0.00 0.00 88 970.2
20260504231731 1 214 4.8 6.4 0.00 0.00 0.00 89 970.2